Location: Владивосток
(43.1151°N, 131.8856°E)
Time: 17:13:37
(UTC+10:00)

SEEDS - Pass Details

Date: 01 May 2024
Orbit: 551 x 562 km, 97.7° (Epoch: 19 May)

Event Time Altitude Azimuth Distance (km) Brightness Sun altitude
Rises 04:21:42 0° 26° (NNE) 2,737 ? -17.1°
Reaches altitude 10° 04:24:11 10° 41° (NE) 1,837 ? -16.7°
Maximum altitude 04:27:23 23° 95° (E) 1,196 ? -16.3°
Drops below altitude 10° 04:30:34 10° 149° (SSE) 1,826 ? -15.8°
Enters shadow 04:33:01 - 163° (SSE) 2,713 ? -15.5°
